Probability
0 0 0 0 0 0 0 0 0 0 0 0 0 0 0 0 0 0 0 0 0 0 0 0 0 0 0 0 0 1 2 3 1 0 0 0 0 0 0 0 0 0 0 0 0 0 0 0 0
0 0 0 0 0 0 0 0 0 0 0 0 0 0 0 0 0 0 0 0 0 0 0 0 0 0 0 0 0 1 2 2 1 0 0 0 0 0 1 1 1 0 0 0 0 0 0 0 0
0 0 0 0 0 0 0 0 0 0 0 0 0 1 1 0 0 0 0 0 0 0 0 0 0 0 0 0 0 0 1 1 1 0 0 0 0 1 2 2 2 1 0 0 0 0 0 0 0
0 0 0 0 0 0 0 0 0 0 0 0 0 1 1 0 0 0 0 0 0 0 0 0 0 0 0 0 0 0 0 0 0 0 0 0 0 1 2 3 3 1 1 2 1 0 0 0 0
0 0 0 0 0 0 0 0 0 0 0 0 0 1 1 0 1 1 0 0 0 0 0 0 0 0 0 0 0 0 0 0 0 0 0 0 0 1 3 3 3 3 3 3 2 1 0 0 0
0 0 0 0 0 0 0 0 0 0 0 0 0 0 0 1 2 1 0 0 0 0 0 0 0 0 0 0 0 0 0 0 0 0 1 2 2 2 3 3 3 3 3 3 2 1 0 0 1
0 0 0 0 0 0 0 0 0 1 0 0 0 0 0 1 2 1 0 0 0 0 0 0 0 0 0 0 0 0 0 0 0 1 2 3 2 2 3 3 3 3 3 2 2 1 0 1 2
0 0 0 0 0 0 0 0 0 1 1 1 0 0 1 2 3 2 0 0 0 0 0 0 0 0 0 0 0 0 1 0 1 2 3 3 1 1 2 2 2 2 1 1 1 0 0 1 2
0 0 0 0 0 0 0 0 1 2 2 2 2 2 3 5 5 4 1 0 0 0 0 0 0 0 0 0 0 0 0 0 1 2 2 2 1 0 1 1 1 1 0 0 0 0 0 1 1
0 0 0 0 0 0 0 1 2 3 2 3 4 5 7 8 7 5 2 0 0 0 0 0 0 0 0 0 0 0 0 0 0 1 1 1 0 0 0 0 0 0 0 0 0 0 0 0 0
0 0 0 0 0 0 1 1 2 1 1 2 4 7 9 8 6 4 2 0 0 0 0 0 0 0 0 0 0 0 0 0 0 0 0 0 0 0 0 0 0 0 0 0 0 0 0 0 0
0 0 0 0 0 1 2 2 1 0 0 2 5 7 6 4 3 2 1 1 1 0 0 0 0 0 0 0 0 0 0 0 0 0 0 0 0 0 0 0 0 0 0 0 0 0 0 0 0
0 0 0 0 0 1 2 2 1 0 1 3 6 5 3 2 1 0 0 0 0 0 0 0 0 0 0 0 0 0 0 0 0 0 0 0 0 0 0 0 0 0 0 0 0 0 0 0 0
0 0 0 0 0 1 1 1 0 0 2 5 7 5 2 2 1 0 0 0 0 0 0 0 0 0 0 0 0 0 0 0 0 0 0 0 0 0 0 0 0 0 0 0 0 0 0 0 0
0 0 0 0 0 0 0 0 0 0 2 6 7 4 2 2 1 1 2 1 0 0 0 0 0 0 0 0 0 0 0 0 0 0 0 0 0 0 0 0 0 0 0 0 0 0 0 0 0
0 0 0 0 0 0 0 0 0 0 2 4 5 4 2 1 1 2 3 2 2 1 1 1 0 0 1 1 0 1 1 1 1 0 0 0 0 0 1 1 1 0 0 0 0 0 0 0 0
0 0 0 0 0 0 0 0 0 0 1 2 3 3 1 0 0 1 2 3 4 4 3 2 1 1 2 2 1 2 2 2 1 0 1 2 1 1 2 2 2 1 1 0 0 0 0 0 0
0 0 0 0 0 0 0 0 0 0 0 1 2 1 0 0 0 0 1 3 5 5 4 3 1 1 2 3 2 2 2 2 2 2 3 4 3 2 3 4 3 3 2 1 1 0 0 0 0
0 0 0 0 0 0 0 0 0 0 0 0 1 1 0 0 1 1 1 3 5 5 4 3 3 3 4 4 4 3 3 3 3 4 5 5 5 5 5 5 5 5 5 4 2 1 0 0 0
0 0 0 0 0 0 0 0 0 0 0 1 1 1 0 1 3 4 4 5 7 8 7 5 5 6 6 6 5 4 3 3 4 5 6 5 5 6 6 6 6 8 8 7 5 4 3 2 1
0 0 0 0 0 0 0 0 0 0 1 2 1 0 1 4 8 9 8 8 11 13 12 9 7 7 7 7 6 4 3 3 4 5 4 4 4 5 5 5 6 8 9 9 8 8 7 5 4
0 0 0 0 0 0 0 0 0 0 1 2 2 1 2 6 11 12 11 11 13 16 15 13 10 8 8 8 7 6 4 3 3 4 3 3 3 3 3 3 4 5 7 8 9 9 9 8 6
0 0 0 0 0 0 0 0 0 0 2 3 3 2 3 8 13 14 15 15 15 15 16 15 12 11 11 11 9 7 4 3 3 3 3 3 3 2 2 2 2 3 4 6 7 7 7 7 6
0 0 0 0 0 0 0 0 0 0 1 3 3 3 5 10 13 14 15 15 15 15 16 17 16 16 16 14 11 8 5 4 3 3 3 3 3 2 1 1 1 2 2 3 4 3 3 3 3
0 0 0 0 0 0 0 0 0 0 2 3 4 3 6 10 11 11 11 12 14 16 19 21 23 22 20 16 13 11 8 5 4 3 3 4 4 1 0 2 3 3 2 2 2 1 1 0 0
0 0 0 0 0 0 0 0 1 2 4 4 4 4 5 7 8 8 9 10 12 15 21 26 28 27 24 19 17 15 11 7 6 5 4 5 4 2 1 3 3 3 2 1 1 1 0 0 0
0 0 0 0 0 0 0 1 2 4 6 6 5 3 3 4 5 7 8 9 12 15 21 28 30 29 26 22 21 19 15 12 11 9 8 7 6 4 2 2 1 1 1 0 0 0 0 0 0
0 0 0 0 0 0 0 1 3 4 6 7 6 3 2 3 5 8 8 9 11 14 18 25 29 29 26 23 23 21 18 16 16 14 12 11 10 5 1 0 0 0 0 0 0 0 0 0 0
0 0 0 0 0 0 0 1 2 4 5 6 6 5 5 5 7 10 11 11 12 14 19 24 27 29 27 25 24 22 20 18 17 16 15 14 11 7 2 1 0 0 0 0 0 0 0 0 0
0 0 0 0 0 0 0 0 2 4 5 5 7 8 7 7 10 12 14 16 16 18 21 25 28 30 28 27 25 23 21 19 17 16 16 14 12 7 4 2 1 0 0 1 1 1 0 0 0
Wind_Speed
5 1 2 2 7 7 4 3 2 3 4 4 6 7 7 5 3 5 1 4 5 4 3 6 10 12 13 13 14 15 16 17 17 17 17 17 18 17 17 17 17 17 17 17 17 17 17 16 16
1 1 3 5 7 4 3 3 4 3 4 5 6 7 7 6 5 7 3 4 5 5 4 6 11 12 12 13 14 14 16 16 16 16 16 16 16 16 16 17 17 16 16 17 17 16 16 16 15
1 2 5 6 5 3 2 1 4 5 4 3 5 6 5 4 5 4 4 7 5 4 4 6 11 12 12 12 13 14 15 15 15 15 15 15 16 16 16 16 16 16 16 16 16 16 15 15 14
3 4 6 7 5 1 3 4 5 4 4 6 5 6 5 4 4 5 8 8 6 4 4 6 11 11 11 12 12 13 14 14 15 14 14 15 15 15 15 15 15 15 15 15 15 14 14 13 13
4 6 8 5 3 2 3 5 3 3 3 5 5 6 4 4 9 11 8 7 6 4 4 5 11 11 11 11 12 13 13 13 13 13 13 13 13 14 14 14 14 14 14 14 14 13 13 12 12
5 6 6 3 2 2 2 3 4 6 5 5 5 5 4 4 9 9 8 6 5 5 4 5 9 10 10 10 11 12 12 12 12 12 12 12 13 12 12 13 13 13 13 13 12 12 11 11 11
5 5 4 3 2 2 3 3 4 5 5 4 4 6 4 4 6 8 7 6 5 4 4 4 4 6 8 10 10 11 11 11 11 11 11 11 12 12 12 11 11 11 12 11 11 11 10 10 10
5 6 4 2 3 2 4 4 5 6 5 5 4 7 6 7 8 8 7 5 5 4 4 4 4 4 4 4 8 10 10 10 10 10 10 10 10 10 10 9 9 10 10 10 9 9 9 8 8
4 6 2 4 5 4 5 5 4 4 6 3 3 5 7 13 12 9 7 5 4 4 3 3 3 3 3 3 5 6 7 7 7 7 9 7 4 4 5 7 8 8 8 8 8 8 7 7 6
5 4 4 4 5 6 6 6 6 5 5 3 6 9 14 14 12 11 10 8 6 5 3 2 3 3 2 2 3 3 3 3 3 3 4 3 3 3 4 5 6 6 6 6 6 7 6 5 3
3 3 2 1 3 6 6 6 5 9 4 6 12 16 16 14 11 10 9 7 6 5 5 3 3 2 2 2 2 2 2 2 2 3 3 3 3 2 3 2 3 3 4 3 4 4 3 2 2
2 1 2 2 4 6 7 6 5 5 5 8 14 17 15 14 12 11 9 8 6 5 5 4 4 3 2 2 2 2 1 1 1 2 2 2 2 1 1 1 1 2 1 2 2 1 2 2 2
2 1 1 3 6 6 7 5 4 3 6 12 15 14 14 12 10 8 7 6 6 6 6 5 4 4 3 2 1 2 1 1 1 1 1 2 2 1 1 0 1 1 1 1 1 1 1 1 1
1 2 3 4 5 4 7 3 3 4 11 14 14 13 12 12 10 8 7 7 7 7 7 6 6 5 4 3 2 2 2 1 1 1 2 2 2 1 1 0 0 0 0 0 0 1 0 0 1
2 5 6 3 3 3 7 3 1 6 12 13 12 12 11 10 9 10 10 8 8 8 7 6 7 6 5 4 4 2 2 2 2 2 2 2 2 2 2 1 1 1 0 1 1 1 1 0 0
4 5 3 2 2 3 6 3 2 9 12 11 11 11 10 9 10 9 9 8 7 7 7 7 7 6 6 5 4 3 3 3 2 2 2 3 3 3 2 2 1 1 1 1 1 0 1 0 0
5 3 1 1 1 3 4 4 4 8 10 10 10 10 10 8 9 9 8 8 8 8 8 7 6 7 6 5 4 3 3 3 2 2 2 3 3 3 3 2 1 1 1 1 1 1 1 1 1
3 3 2 3 2 3 3 3 4 8 10 10 9 9 9 11 11 9 8 8 8 7 7 7 6 6 5 4 3 2 1 1 1 2 3 3 3 4 3 2 2 2 1 1 1 1 1 1 1
5 4 2 3 2 4 4 3 6 9 9 9 9 9 10 10 7 7 8 8 7 7 7 7 7 6 5 3 3 2 2 2 2 2 3 3 3 4 3 2 2 2 2 2 2 1 1 0 0
4 3 1 2 1 3 2 2 3 8 11 11 11 11 10 8 6 8 8 8 9 9 9 8 8 7 6 4 3 2 2 2 2 1 2 3 3 3 3 3 3 2 2 1 2 1 1 0 1
2 4 4 2 3 4 4 3 2 4 5 6 7 7 8 10 10 9 9 10 10 11 11 10 9 8 7 6 3 3 2 1 1 1 1 2 3 3 3 3 3 3 3 2 2 2 3 2 1
3 4 5 4 4 1 2 2 6 4 5 7 9 9 10 10 9 9 10 10 11 11 9 9 9 8 7 7 6 6 4 3 3 2 2 2 2 3 4 4 4 3 2 3 3 3 2 3 2
5 2 4 3 4 2 2 2 7 1 5 10 11 12 11 10 11 11 12 12 10 9 9 8 8 8 7 7 8 6 5 3 2 2 2 2 2 2 3 4 3 3 3 3 3 2 3 3 3
5 7 7 6 6 1 3 3 6 5 9 8 10 11 11 11 10 10 9 8 7 7 8 8 8 8 8 8 7 7 7 5 4 3 3 2 2 2 3 3 3 3 3 3 3 3 4 3 3
6 7 5 4 3 5 2 3 9 8 8 10 9 10 9 9 9 8 9 9 9 9 10 9 10 9 8 8 7 7 7 7 6 5 4 3 2 2 3 3 3 3 3 4 3 3 3 3 3
5 9 9 6 5 4 1 5 8 5 5 5 5 5 5 7 8 9 9 10 10 10 10 10 10 9 8 8 8 7 6 5 4 5 4 4 4 4 3 4 4 4 4 4 3 3 3 3 3
7 4 7 8 3 1 4 6 8 3 4 2 0 3 5 7 8 9 8 8 9 9 10 10 10 8 8 8 7 6 6 6 5 5 4 4 3 3 4 4 4 4 4 3 3 3 3 3 3
6 10 7 7 6 2 3 3 4 5 5 4 1 2 4 5 6 6 6 7 7 7 7 7 8 9 8 7 7 7 6 6 5 4 5 4 4 3 3 3 3 3 3 3 3 3 3 2 2
5 5 6 6 6 7 2 6 5 5 4 4 4 3 4 5 6 6 5 5 5 5 6 6 7 6 6 7 7 6 6 5 5 4 5 4 3 3 4 3 3 2 2 2 2 2 2 2 2
5 7 8 7 3 4 5 7 4 3 3 2 2 1 1 2 3 4 4 5 4 5 5 6 6 6 6 6 6 6 5 5 5 5 4 4 4 3 3 3 2 2 2 2 2 2 2 2 2
Wind_Direction
307 306 129 77 56 50 36 14 62 71 60 55 72 77 80 59 74 121 125 110 103 94 78 89 91 90 89 88 91 97 99 99 100 101 101 101 101 103 103 103 103 102 103 103 103 102 102 101 101
292 124 69 59 73 61 8 7 59 73 128 124 81 71 68 62 66 102 115 111 104 98 84 97 97 94 91 90 92 97 99 101 102 103 103 103 103 103 103 103 102 102 103 103 102 101 101 101 100
199 71 75 66 75 116 120 73 97 94 106 90 78 65 70 91 110 115 132 121 98 89 84 103 100 97 94 92 94 99 101 103 104 104 103 104 104 104 104 103 103 104 103 103 101 101 101 101 101
82 50 54 65 66 101 148 146 123 116 68 56 88 74 68 84 119 123 127 119 103 89 88 106 104 101 98 97 99 101 103 104 104 103 102 103 104 104 103 103 103 103 103 102 102 102 103 103 102
59 70 61 55 41 46 109 130 123 95 70 69 84 85 58 43 102 117 122 119 112 98 90 105 108 105 103 103 105 105 105 105 105 104 103 104 104 103 103 103 103 104 103 102 102 103 103 104 104
57 65 78 84 65 65 101 115 103 91 89 88 83 88 70 107 117 126 122 117 111 105 93 102 113 111 108 109 110 109 108 107 106 106 104 103 103 102 101 103 105 104 102 101 102 102 101 102 105
90 83 103 123 120 125 146 118 112 111 104 101 99 95 103 133 127 123 114 109 101 93 88 79 90 103 110 112 112 111 110 109 108 108 107 106 105 105 104 104 105 104 101 101 102 100 100 101 107
112 95 86 119 146 167 140 109 110 114 105 116 109 130 156 160 132 116 106 100 98 89 85 81 78 75 78 96 114 115 114 114 112 110 107 103 104 105 106 103 104 104 102 101 100 99 99 99 105
83 76 130 186 172 166 140 122 120 95 112 124 106 130 139 137 132 127 125 119 124 120 92 91 91 88 85 92 108 106 110 109 109 106 103 92 73 77 93 104 105 104 101 99 98 99 97 91 94
78 108 211 201 175 153 142 133 137 117 124 102 89 103 126 139 146 150 156 161 165 164 157 131 121 115 104 107 84 64 71 72 79 84 88 80 73 67 80 87 98 97 91 88 86 86 83 76 71
101 163 215 163 153 135 131 131 126 133 170 176 150 145 149 154 158 163 168 172 176 173 174 164 157 140 119 98 95 73 66 70 78 92 89 84 73 61 56 52 56 55 63 61 66 64 63 69 78
99 241 175 150 131 130 141 137 129 164 198 158 148 148 153 165 169 172 175 178 170 172 187 176 170 157 142 116 104 100 86 87 89 92 99 94 86 73 61 55 45 47 53 62 62 67 68 80 100
63 348 17 108 113 120 115 117 129 150 123 130 139 149 161 168 173 176 174 171 167 182 189 182 178 174 162 145 149 129 128 134 133 124 129 131 125 124 103 46 36 34 62 76 74 75 67 74 103
40 54 57 82 105 116 117 99 97 135 134 140 152 162 171 177 174 171 174 178 183 190 192 184 188 187 177 173 166 149 165 170 155 173 178 165 159 159 145 130 1 334 86 96 102 119 82 58 130
83 69 43 51 89 117 109 74 173 146 143 152 165 171 176 182 181 186 188 186 189 191 190 187 192 186 183 183 186 175 176 168 185 197 186 178 176 175 165 169 202 228 141 111 79 54 67 120 134
60 67 66 306 90 121 123 195 193 149 154 165 174 178 184 191 194 196 192 188 187 185 186 191 193 183 187 187 186 178 176 179 197 194 186 193 186 175 168 181 203 189 143 132 132 114 78 62 134
42 98 139 257 195 129 135 200 186 163 166 177 183 187 190 196 204 200 194 189 186 186 183 184 184 179 184 183 178 175 171 185 189 179 186 196 186 177 175 189 205 172 156 169 188 149 153 152 231
164 145 163 204 207 132 159 213 174 176 180 189 192 193 195 203 209 200 193 188 184 183 182 182 180 176 168 160 150 142 153 184 180 186 192 187 181 173 174 185 197 169 158 175 171 174 141 156 209
144 139 172 235 194 146 193 215 195 185 191 198 201 200 204 214 208 193 191 185 179 179 182 184 177 174 160 150 155 157 183 193 199 205 197 187 183 177 176 185 187 182 187 194 177 167 137 125 140
132 131 149 335 27 139 179 256 211 194 203 203 203 205 206 206 197 195 191 188 189 189 189 187 183 178 178 173 162 159 156 170 189 194 190 192 190 186 187 190 196 191 185 180 181 165 146 151 138
164 171 175 168 38 46 84 350 254 230 220 217 214 207 203 202 201 198 195 197 196 198 194 194 189 183 182 169 139 114 92 75 119 187 206 205 195 193 196 195 195 196 190 199 208 189 179 195 203
216 208 166 147 107 349 116 240 272 232 228 227 222 212 209 208 201 199 199 201 203 204 196 193 188 185 181 169 166 167 175 192 205 196 207 219 207 202 200 200 200 203 201 208 217 202 189 182 205
194 132 121 113 118 81 40 150 282 235 235 237 226 218 214 206 200 201 203 205 205 198 191 189 186 187 182 180 182 180 188 194 183 184 208 222 228 222 216 207 202 207 213 217 215 204 198 196 199
131 75 60 50 73 103 224 165 268 230 223 238 225 217 213 205 202 203 200 195 194 189 187 184 184 191 185 185 185 186 189 186 182 198 211 222 228 237 233 219 210 210 217 224 219 216 213 212 211
104 94 54 19 24 246 256 188 248 247 236 232 223 214 210 198 196 196 193 192 192 190 189 186 187 194 187 186 190 192 192 189 196 201 207 212 217 229 231 224 218 217 219 225 222 219 226 216 214
159 137 151 173 199 262 290 226 254 265 268 251 226 202 191 190 193 197 198 196 194 193 190 188 191 195 189 192 199 195 189 192 203 204 202 209 216 225 221 217 221 224 222 224 217 224 232 221 222
132 149 150 124 137 123 274 283 299 323 346 347 205 166 186 191 194 194 191 192 191 190 192 190 188 192 194 197 197 194 192 197 206 204 201 210 217 221 214 214 220 228 223 219 213 227 235 225 228
133 141 107 115 135 190 288 276 262 299 311 325 307 197 205 188 187 184 180 183 185 185 184 179 185 194 193 191 195 199 197 201 202 196 204 211 213 212 204 209 215 224 227 223 215 230 238 222 238
108 94 104 108 139 145 196 266 238 240 254 266 265 231 205 186 177 177 174 170 165 159 164 177 184 184 186 191 191 192 192 191 191 197 204 206 208 202 206 206 207 214 219 209 200 220 228 225 248
134 149 141 140 167 150 157 259 279 241 259 251 256 243 183 166 143 140 139 135 139 151 166 179 184 188 193 190 187 191 184 179 190 201 200 191 191 191 193 182 186 201 200 185 187 215 223 218 238